Portada
METAR-TAF:

METAR-TAF

Aeropuertos :

La Gomera, España

Aeropuerto de La Gomera

latitud: 28-01-47N, longitud: 017-12-53W, altitud: 218 m

Observación

El informe se hizo hace 42 minutos, a las 04:30 UTC
Viento 1 kt con dirección variable
Temperatura 25°C
Humedad 50%
Presión 1015 hPa
Visibilidad 10 km o más

METAR: GCGM 240430Z AUTO VRB01KT 9999 NCD 25/14 Q1015 RMK R09/08003KT 040V140 ARP/04003KT 010V110

Hora: 06:12 (05:12 UTC)


TAF: falta

Observaciones y pronósticos meteorológicos de más de 4000 aeropuertos (mensajes METAR y TAF).

Los puntos amarillos y rojos representan las estaciones disponibles.

Ponga el ratón en el punto deseado para ver el nombre de la estación.

Haga clic para ver las observaciones y los pronósticos meteorológicos.

Para cambiar el mapa : haga clic en los botones verdes con una cruz de color negro para hacer un zoom, en el botón verde con un guión para alejar o en las flechas verdes para mapas adyacentes.


METAR-TAF: